Time,TemperatureF,DewpointF,PressureIn,WindDirection,WindDirectionDegrees,WindSpeedMPH,WindSpeedGustMPH,Humidity,HourlyPrecipIn,Conditions,Clouds,dailyrainin,SoftwareType,DateUTC
2013-01-20 08:35:00,32.6,13.6,30.13,East,98,1.0,6.0,45,0.00,,,0.00,Wunderground v.1.15,2013-01-20 13:35:00,
2013-01-20 08:40:00,32.8,13.2,30.13,East,94,1.0,6.0,44,0.00,,,0.00,Wunderground v.1.15,2013-01-20 13:40:00,
2013-01-20 08:45:00,33.0,13.4,30.14,East,81,2.0,6.0,44,0.00,,,0.00,Wunderground v.1.15,2013-01-20 13:45:00,
2013-01-20 08:55:00,33.9,13.2,30.14,East,85,2.0,6.0,42,0.00,,,0.00,Wunderground v.1.15,2013-01-20 13:55:00,
2013-01-20 09:00:00,34.2,13.5,30.15,ESE,115,2.0,2.0,42,0.00,,,0.00,Wunderground v.1.15,2013-01-20 14:00:00,
2013-01-20 09:10:00,34.5,13.2,30.16,SE,133,2.0,6.0,41,0.00,,,0.00,Wunderground v.1.15,2013-01-20 14:10:00,
2013-01-20 09:20:00,34.9,14.1,30.16,ESE,115,2.0,6.0,42,0.00,,,0.00,Wunderground v.1.15,2013-01-20 14:20:00,
2013-01-20 09:30:00,35.4,15.1,30.17,SE,124,2.0,2.0,43,0.00,,,0.00,Wunderground v.1.15,2013-01-20 14:30:00,
2013-01-20 09:40:00,35.2,13.8,30.17,South,169,2.0,6.0,41,0.00,,,0.00,Wunderground v.1.15,2013-01-20 14:40:00,
2013-01-20 09:50:00,35.2,14.4,30.18,SE,131,3.0,6.0,42,0.00,,,0.00,Wunderground v.1.15,2013-01-20 14:50:00,
2013-01-20 10:00:00,34.7,15.5,30.18,ESE,102,3.0,3.0,45,0.00,,,0.00,Wunderground v.1.15,2013-01-20 15:00:00,
2013-01-20 10:10:00,34.4,13.1,30.19,ENE,72,2.0,6.0,41,0.00,,,0.00,Wunderground v.1.15,2013-01-20 15:10:00,
2013-01-20 10:20:00,35.5,14.6,30.20,SE,131,2.0,6.0,42,0.00,,,0.00,Wunderground v.1.15,2013-01-20 15:20:00,
2013-01-20 10:30:00,35.7,15.4,30.20,SSE,159,2.0,6.0,43,0.00,,,0.00,Wunderground v.1.15,2013-01-20 15:30:00,
2013-01-20 10:35:00,35.9,14.5,30.20,ESE,122,2.0,6.0,41,0.00,,,0.00,Wunderground v.1.15,2013-01-20 15:35:00,
2013-01-20 10:45:00,36.0,15.1,30.21,SSW,210,3.0,5.0,42,0.00,,,0.00,Wunderground v.1.15,2013-01-20 15:45:00,
2013-01-20 10:55:00,36.3,15.9,30.21,SSE,148,3.0,6.0,43,0.00,,,0.00,Wunderground v.1.15,2013-01-20 15:55:00,
2013-01-20 11:05:00,36.6,14.5,30.21,South,182,3.0,6.0,40,0.00,,,0.00,Wunderground v.1.15,2013-01-20 16:05:00,
2013-01-20 11:15:00,36.7,16.3,30.22,SE,143,3.0,6.0,43,0.00,,,0.00,Wunderground v.1.15,2013-01-20 16:15:00,
2013-01-20 11:25:00,36.8,15.3,30.22,SE,139,3.0,6.0,41,0.00,,,0.00,Wunderground v.1.15,2013-01-20 16:25:00,
2013-01-20 11:35:00,36.6,15.1,30.22,East,97,3.0,6.0,41,0.00,,,0.00,Wunderground v.1.15,2013-01-20 16:35:00,
2013-01-20 11:45:00,36.7,14.0,30.22,East,91,4.0,6.0,39,0.00,,,0.00,Wunderground v.1.15,2013-01-20 16:45:00,
2013-01-20 11:55:00,36.4,15.5,30.21,NE,56,3.0,6.0,42,0.00,,,0.00,Wunderground v.1.15,2013-01-20 16:55:00,
2013-01-20 12:05:00,37.1,14.4,30.21,SSE,165,3.0,4.0,39,0.00,,,0.00,Wunderground v.1.15,2013-01-20 17:05:00,
2013-01-20 12:15:00,37.2,15.1,30.21,SE,139,3.0,3.0,40,0.00,,,0.00,Wunderground v.1.15,2013-01-20 17:15:00,
2013-01-20 12:25:00,37.0,16.0,30.20,East,91,4.0,6.0,42,0.00,,,0.00,Wunderground v.1.15,2013-01-20 17:25:00,
2013-01-20 12:35:00,37.7,16.6,30.19,NNE,21,2.0,6.0,42,0.00,,,0.00,Wunderground v.1.15,2013-01-20 17:35:00,
2013-01-20 12:40:00,38.0,16.9,30.19,ENE,66,2.0,6.0,42,0.00,,,0.00,Wunderground v.1.15,2013-01-20 17:40:00,
2013-01-20 12:45:00,38.1,15.9,30.19,SSW,198,2.0,6.0,40,0.00,,,0.00,Wunderground v.1.15,2013-01-20 17:45:00,
2013-01-20 12:55:00,38.0,16.4,30.19,ENE,65,2.0,6.0,41,0.00,,,0.00,Wunderground v.1.15,2013-01-20 17:55:00,
2013-01-20 13:00:00,38.0,15.8,30.18,South,176,2.0,6.0,40,0.00,,,0.00,Wunderground v.1.15,2013-01-20 18:00:00,
2013-01-20 13:10:00,37.9,17.4,30.19,East,84,3.0,3.0,43,0.00,,,0.00,Wunderground v.1.15,2013-01-20 18:10:00,
2013-01-20 13:20:00,37.7,17.7,30.19,ENE,72,3.0,6.0,44,0.00,,,0.00,Wunderground v.1.15,2013-01-20 18:20:00,
2013-01-20 13:25:00,37.7,16.1,30.18,West,277,4.0,6.0,41,0.00,,,0.00,Wunderground v.1.15,2013-01-20 18:25:00,
2013-01-20 13:35:00,38.7,18.6,30.19,South,177,2.0,6.0,44,0.00,,,0.00,Wunderground v.1.15,2013-01-20 18:35:00,
2013-01-20 13:45:00,38.1,15.3,30.18,North,358,3.0,6.0,39,0.00,,,0.00,Wunderground v.1.15,2013-01-20 18:45:00,
2013-01-20 13:55:00,38.4,15.0,30.18,South,175,2.0,6.0,38,0.00,,,0.00,Wunderground v.1.15,2013-01-20 18:55:00,
2013-01-20 14:00:00,38.3,14.9,30.17,East,100,2.0,6.0,38,0.00,,,0.00,Wunderground v.1.15,2013-01-20 19:00:00,
2013-01-20 14:10:00,38.7,15.8,30.17,South,188,2.0,6.0,39,0.00,,,0.00,Wunderground v.1.15,2013-01-20 19:10:00,
2013-01-20 14:20:00,38.0,14.6,30.18,SSE,148,4.0,4.0,38,0.00,,,0.00,Wunderground v.1.15,2013-01-20 19:20:00,
2013-01-20 14:25:00,37.9,15.1,30.18,SSE,165,3.0,6.0,39,0.00,,,0.00,Wunderground v.1.15,2013-01-20 19:25:00,
2013-01-20 14:35:00,37.8,13.8,30.18,North,8,2.0,6.0,37,0.00,,,0.00,Wunderground v.1.15,2013-01-20 19:35:00,
2013-01-20 14:45:00,38.2,15.4,30.17,SSE,158,3.0,6.0,39,0.00,,,0.00,Wunderground v.1.15,2013-01-20 19:45:00,
2013-01-20 14:50:00,38.6,16.3,30.17,South,188,3.0,10.0,40,0.00,,,0.00,Wunderground v.1.15,2013-01-20 19:50:00,
2013-01-20 15:00:00,38.7,15.8,30.17,SSE,162,3.0,3.0,39,0.00,,,0.00,Wunderground v.1.15,2013-01-20 20:00:00,
2013-01-20 15:10:00,39.1,13.1,30.16,SSW,194,2.0,6.0,34,0.00,,,0.00,Wunderground v.1.15,2013-01-20 20:10:00,
2013-01-20 15:20:00,39.3,13.9,30.17,SSW,200,3.0,6.0,35,0.00,,,0.00,Wunderground v.1.15,2013-01-20 20:20:00,
2013-01-20 15:25:00,38.9,14.8,30.16,SSE,167,2.0,6.0,37,0.00,,,0.00,Wunderground v.1.15,2013-01-20 20:25:00,
2013-01-20 15:35:00,38.3,13.6,30.16,SSW,208,4.0,6.0,36,0.00,,,0.00,Wunderground v.1.15,2013-01-20 20:35:00,
2013-01-20 15:45:00,37.3,12.7,30.17,South,177,2.0,6.0,36,0.00,,,0.00,Wunderground v.1.15,2013-01-20 20:45:00,
2013-01-20 15:55:00,37.0,13.7,30.17,SW,219,2.0,6.0,38,0.00,,,0.00,Wunderground v.1.15,2013-01-20 20:55:00,
2013-01-20 16:00:00,37.0,13.7,30.16,ESE,118,1.0,1.0,38,0.00,,,0.00,Wunderground v.1.15,2013-01-20 21:00:00,
2013-01-20 16:05:00,37.5,14.2,30.17,ESE,103,1.0,4.0,38,0.00,,,0.00,Wunderground v.1.15,2013-01-20 21:05:00,
2013-01-20 16:15:00,38.5,14.4,30.17,SE,132,2.0,6.0,37,0.00,,,0.00,Wunderground v.1.15,2013-01-20 21:15:00,
2013-01-20 16:25:00,38.4,11.8,30.17,SE,136,2.0,6.0,33,0.00,,,0.00,Wunderground v.1.15,2013-01-20 21:25:00,
2013-01-20 16:30:00,38.3,13.6,30.16,SSW,210,2.0,6.0,36,0.00,,,0.00,Wunderground v.1.15,2013-01-20 21:30:00,
2013-01-20 16:40:00,37.7,12.5,30.17,SE,143,2.0,6.0,35,0.00,,,0.00,Wunderground v.1.15,2013-01-20 21:40:00,
2013-01-20 16:50:00,37.3,14.0,30.18,South,191,1.0,6.0,38,0.00,,,0.00,Wunderground v.1.15,2013-01-20 21:50:00,
2013-01-20 16:55:00,36.7,12.2,30.18,SSW,208,1.0,6.0,36,0.00,,,0.00,Wunderground v.1.15,2013-01-20 21:55:00,
2013-01-20 17:05:00,36.0,11.6,30.18,SSW,201,0.0,6.0,36,0.00,,,0.00,Wunderground v.1.15,2013-01-20 22:05:00,
2013-01-20 17:10:00,35.7,13.1,30.18,ESE,109,0.0,6.0,39,0.00,,,0.00,Wunderground v.1.15,2013-01-20 22:10:00,
2013-01-20 17:15:00,35.5,12.4,30.18,SSW,201,1.0,6.0,38,0.00,,,0.00,Wunderground v.1.15,2013-01-20 22:15:00,
2013-01-20 17:25:00,35.1,12.6,30.19,WSW,253,1.0,6.0,39,0.00,,,0.00,Wunderground v.1.15,2013-01-20 22:25:00,
2013-01-20 17:35:00,34.9,13.0,30.19,SSE,166,1.0,6.0,40,0.00,,,0.00,Wunderground v.1.15,2013-01-20 22:35:00,
2013-01-20 17:45:00,34.3,13.6,30.20,SSE,153,0.0,6.0,42,0.00,,,0.00,Wunderground v.1.15,2013-01-20 22:45:00,
2013-01-20 17:55:00,33.6,14.5,30.20,NNW,329,0.0,6.0,45,0.00,,,0.00,Wunderground v.1.15,2013-01-20 22:55:00,
2013-01-20 18:05:00,33.2,15.1,30.20,WNW,285,0.0,6.0,47,0.00,,,0.00,Wunderground v.1.15,2013-01-20 23:05:00,
2013-01-20 18:10:00,32.9,15.3,30.20,WNW,285,0.0,6.0,48,0.00,,,0.00,Wunderground v.1.15,2013-01-20 23:10:00,
2013-01-20 18:20:00,33.5,14.4,30.21,SE,139,1.0,1.0,45,0.00,,,0.00,Wunderground v.1.15,2013-01-20 23:20:00,
2013-01-20 18:30:00,33.6,15.0,30.21,SW,215,0.0,6.0,46,0.00,,,0.00,Wunderground v.1.15,2013-01-20 23:30:00,
2013-01-20 18:35:00,33.6,14.0,30.20,ESE,111,0.0,6.0,44,0.00,,,0.00,Wunderground v.1.15,2013-01-20 23:35:00,
2013-01-20 18:45:00,33.8,14.7,30.20,South,169,0.0,6.0,45,0.00,,,0.00,Wunderground v.1.15,2013-01-20 23:45:00,
2013-01-20 18:55:00,33.6,14.5,30.20,ENE,62,0.0,6.0,45,0.00,,,0.00,Wunderground v.1.15,2013-01-20 23:55:00,
2013-01-20 19:00:00,33.5,14.9,30.20,East,94,0.0,6.0,46,0.00,,,0.00,Wunderground v.1.15,2013-01-21 00:00:00,
2013-01-20 19:10:00,33.3,16.2,30.20,East,101,0.0,6.0,49,0.00,,,0.00,Wunderground v.1.15,2013-01-21 00:10:00,
2013-01-20 19:20:00,32.8,15.7,30.19,East,100,0.0,6.0,49,0.00,,,0.00,Wunderground v.1.15,2013-01-21 00:20:00,
2013-01-20 19:25:00,32.6,16.4,30.19,East,100,0.0,6.0,51,0.00,,,0.00,Wunderground v.1.15,2013-01-21 00:25:00,
2013-01-20 19:35:00,32.3,17.1,30.19,NNW,338,0.0,6.0,53,0.00,,,0.00,Wunderground v.1.15,2013-01-21 00:35:00,
2013-01-20 19:45:00,31.7,16.5,30.18,NNW,337,0.0,6.0,53,0.00,,,0.00,Wunderground v.1.15,2013-01-21 00:45:00,
2013-01-20 19:50:00,31.5,17.2,30.19,NW,314,0.0,6.0,55,0.00,,,0.00,Wunderground v.1.15,2013-01-21 00:50:00,
2013-01-20 20:00:00,31.2,17.7,30.18,NW,314,0.0,6.0,57,0.00,,,0.00,Wunderground v.1.15,2013-01-21 01:00:00,
2013-01-20 20:10:00,30.8,16.9,30.18,West,276,0.0,6.0,56,0.00,,,0.00,Wunderground v.1.15,2013-01-21 01:10:00,
2013-01-20 20:20:00,30.4,17.0,30.19,West,276,0.0,6.0,57,0.00,,,0.00,Wunderground v.1.15,2013-01-21 01:20:00,
2013-01-20 20:30:00,30.3,15.6,30.18,SSW,194,0.0,6.0,54,0.00,,,0.00,Wunderground v.1.15,2013-01-21 01:30:00,
2013-01-20 20:40:00,30.0,17.0,30.18,SSW,194,0.0,6.0,58,0.00,,,0.00,Wunderground v.1.15,2013-01-21 01:40:00,
2013-01-20 20:50:00,29.7,16.7,30.19,SSW,194,0.0,6.0,58,0.00,,,0.00,Wunderground v.1.15,2013-01-21 01:50:00,
2013-01-20 20:55:00,29.6,17.0,30.19,West,263,0.0,6.0,59,0.00,,,0.00,Wunderground v.1.15,2013-01-21 01:55:00,
2013-01-20 21:05:00,29.5,17.3,30.19,WSW,238,0.0,6.0,60,0.00,,,0.00,Wunderground v.1.15,2013-01-21 02:05:00,
2013-01-20 21:15:00,29.3,17.1,30.18,WSW,238,0.0,6.0,60,0.00,,,0.00,Wunderground v.1.15,2013-01-21 02:15:00,
2013-01-20 21:20:00,29.1,18.1,30.18,WSW,238,0.0,6.0,63,0.00,,,0.00,Wunderground v.1.15,2013-01-21 02:20:00,
2013-01-20 21:30:00,28.8,16.6,30.18,West,274,0.0,6.0,60,0.00,,,0.00,Wunderground v.1.15,2013-01-21 02:30:00,
2013-01-20 21:40:00,28.3,16.2,30.18,West,274,0.0,6.0,60,0.00,,,0.00,Wunderground v.1.15,2013-01-21 02:40:00,
2013-01-20 21:50:00,28.1,17.5,30.18,West,274,0.0,6.0,64,0.00,,,0.00,Wunderground v.1.15,2013-01-21 02:50:00,
2013-01-20 22:00:00,27.8,16.1,30.18,West,274,0.0,6.0,61,0.00,,,0.00,Wunderground v.1.15,2013-01-21 03:00:00,
2013-01-20 22:05:00,27.7,16.0,30.18,West,274,0.0,6.0,61,0.00,,,0.00,Wunderground v.1.15,2013-01-21 03:05:00,
2013-01-20 22:15:00,27.6,16.3,30.18,West,274,0.0,6.0,62,0.00,,,0.00,Wunderground v.1.15,2013-01-21 03:15:00,
2013-01-20 22:20:00,27.5,15.8,30.18,West,274,0.0,6.0,61,0.00,,,0.00,Wunderground v.1.15,2013-01-21 03:20:00,
2013-01-20 22:25:00,27.3,17.1,30.18,West,274,0.0,6.0,65,0.00,,,0.00,Wunderground v.1.15,2013-01-21 03:25:00,
2013-01-20 22:30:00,27.2,16.3,30.18,West,274,0.0,6.0,63,0.00,,,0.00,Wunderground v.1.15,2013-01-21 03:30:00,
2013-01-20 22:35:00,27.2,16.6,30.18,West,274,0.0,6.0,64,0.00,,,0.00,Wunderground v.1.15,2013-01-21 03:35:00,
2013-01-20 22:45:00,27.3,16.0,30.18,West,274,0.0,6.0,62,0.00,,,0.00,Wunderground v.1.15,2013-01-21 03:45:00,
2013-01-20 22:50:00,27.3,17.1,30.18,West,274,0.0,6.0,65,0.00,,,0.00,Wunderground v.1.15,2013-01-21 03:50:00,
2013-01-20 23:00:00,27.3,17.4,30.18,West,274,0.0,6.0,66,0.00,,,0.00,Wunderground v.1.15,2013-01-21 04:00:00,
2013-01-20 23:10:00,27.3,16.7,30.18,West,274,0.0,6.0,64,0.00,,,0.00,Wunderground v.1.15,2013-01-21 04:10:00,
2013-01-20 23:20:00,27.9,15.0,30.18,ESE,108,0.0,6.0,58,0.00,,,0.00,Wunderground v.1.15,2013-01-21 04:20:00,
2013-01-20 23:25:00,28.2,16.1,30.18,ESE,108,0.0,6.0,60,0.00,,,0.00,Wunderground v.1.15,2013-01-21 04:25:00,
2013-01-20 23:35:00,28.5,16.7,30.18,NW,312,0.0,6.0,61,0.00,,,0.00,Wunderground v.1.15,2013-01-21 04:35:00,
2013-01-20 23:40:00,28.7,15.4,30.17,East,100,0.0,6.0,57,0.00,,,0.00,Wunderground v.1.15,2013-01-21 04:40:00,
2013-01-20 23:50:00,28.7,14.6,30.18,East,101,0.0,6.0,55,0.00,,,0.00,Wunderground v.1.15,2013-01-21 04:50:00,
2013-01-20 23:55:00,28.7,16.2,30.17,East,98,0.0,6.0,59,0.00,,,0.00,Wunderground v.1.15,2013-01-21 04:55:00,